#timestamp,LO_Frequency,Hit,StdDev 
1692021615.4,286046994.9,N
1692021635.2,286046999.2,N
1692021655.1,286047000.3,N
1692021656.0,286047000.3,N
1692021675.8,286046996.7,N
1692021695.7,286046998.8,N
1692021715.5,286046997.4,N
1692021735.3,286046997.9,N
1692021755.2,286046993.3,N
1692021775.0,286046994.5,N
1692021775.9,286046994.5,N
1692021795.7,286046996.3,N
1692021815.6,286046997.5,N
1692021835.4,286046997.3,N
1692021855.3,286046996.3,N
1692021875.1,286046991.8,N
1692021876.0,286046991.8,N
1692021895.8,286046992.9,N
1692021915.7,286046993.2,N
1692021935.5,286046994.8,N
1692021955.3,286046993.9,N
1692021975.2,286046993.2,N
1692021995.0,286046992.4,N
1692021995.9,286046992.4,N
1692022015.8,286046994.7,N
1692022035.6,286046992.1,N
1692022055.4,286046997.5,N
1692022075.3,286046995.1,N
1692022095.1,286046997.2,N
1692022115.8,286046994.5,N
1692022135.7,286046990.6,Y
1692022155.5,286046999.2,P
1692022175.4,286046999.5,N
1692022195.2,286046996.5,N
1692022215.0,286046999.4,N
1692022215.9,286046999.4,N
1692022235.8,286046996.7,N
1692022255.6,286046997.9,N
1692022275.4,286046999.5,N
1692022295.3,286046999.3,N
1692022315.1,286046999.0,N
1692022335.9,286046999.8,N
1692022355.7,286047001.0,N
1692022375.5,286046999.9,N
1692022395.4,286047001.3,N
1692022415.2,286047001.5,N
1692022435.1,286047002.3,N
1692022436.0,286047002.3,N
1692022455.8,286047000.6,N
1692022475.6,286047000.1,N
1692022495.5,286046999.3,N
1692022515.3,286047006.0,Y
1692022535.2,286047010.7,P
1692022555.9,286047010.4,N
1692022575.7,286047008.1,N
1692022595.6,286047009.3,N
1692022615.4,286047010.2,N
1692022635.2,286047007.1,N
1692022655.1,286047005.4,N
1692022656.0,286047005.4,N
1692022675.8,286047005.2,N
1692022695.7,286047003.1,N
1692022715.5,286047002.7,N
1692022735.3,286047003.2,N
1692022755.2,286047005.7,N
1692022775.9,286047005.9,N
1692022795.7,286047003.0,N
1692022815.6,286047001.4,N
1692022835.4,286047001.6,N
1692022855.2,286047002.2,N
1692022875.1,286047001.7,N
1692022876.0,286047001.7,N
1692022895.8,286047003.0,N
1692022915.7,286047005.1,N
1692022935.5,286047009.0,N
1692022955.3,286047014.0,Y
1692022975.2,286047010.7,P
1692022995.0,286047009.9,P
1692022995.9,286047009.9,P
1692023015.8,286047010.8,Y
1692023035.6,286047000.6,P
1692023055.4,286047001.7,N
1692023075.3,286047005.8,N
1692023095.1,286047004.4,N
1692023115.8,286047002.5,N
1692023135.7,286047002.3,N
1692023155.5,286047001.0,N
1692023175.4,286046996.6,N
1692023195.2,286046993.7,N
1692023215.0,286046993.6,N
1692023215.9,286046993.6,N
1692023235.8,286046994.4,N
1692023255.6,286046987.1,N
1692023275.4,286046985.3,N
1692023295.3,286046988.8,N
1692023315.1,286046988.9,N
1692023335.9,286046995.6,N
1692023355.7,286046995.4,N
1692023375.5,286046996.1,N
1692023395.4,286046991.7,N
1692023415.2,286046994.4,N
1692023435.0,286046994.3,N
1692023435.9,286046994.3,N
1692023455.8,286046990.4,N
1692023475.6,286046991.3,N
1692023495.4,286046989.0,N
1692023515.3,286046991.9,N
1692023535.1,286046994.3,N
1692023555.9,286046988.9,N
1692023575.7,286046988.9,N
1692023595.5,286046989.1,N
1692023615.4,286046991.3,N
1692023635.2,286046989.7,N
1692023655.0,286046987.9,N
1692023655.9,286046987.9,N
1692023675.8,286046989.8,N
1692023695.6,286046985.7,Y
1692023715.5,286046998.0,P
1692023735.3,286046995.9,N
1692023755.1,286046993.0,N
1692023775.9,286046990.3,Y
1692023795.7,286046997.3,P
1692023815.5,286046997.2,N
1692023835.4,286046996.1,P
1692023885.3,286046997.2,E
1692023895.2,286046998.8,N
1692023915.0,286046999.8,P
1692023915.9,286046999.8,N
1692023935.8,286047000.7,N
1692023955.6,286047004.3,Y
1692023975.4,286047001.7,P
1692023995.3,286047003.8,P
1692024015.1,286047003.6,N
1692024035.8,286047004.2,N
1692024055.7,286047000.1,N
1692024075.5,286046996.7,N
1692024095.3,286046998.5,N
1692024115.2,286046994.9,N
1692024135.0,286046997.1,N
1692024135.9,286046997.1,N
1692024155.8,286046997.4,N
1692024175.6,286046995.6,N
1692024195.4,286046995.6,N
1692024215.3,286046998.8,N
1692024235.1,286046998.6,N
1692024255.8,286047002.2,N
1692024275.7,286047007.3,N
1692024295.5,286047011.7,Y
1692024315.4,286047012.0,P
1692024335.2,286047007.4,N
1692024355.0,286047013.4,N
1692024355.9,286047013.4,N
1692024375.8,286047013.6,N
1692024395.6,286047012.1,N
1692024415.4,286047008.7,N
1692024435.3,286047006.9,N
1692024455.1,286047001.5,N
1692024475.9,286046999.9,N
1692024495.7,286047001.4,N
1692024515.5,286046998.9,N
1692024535.4,286047001.1,N
1692024555.2,286046998.4,N
1692024575.0,286046998.3,N
1692024575.9,286046998.3,N
1692024595.8,286047000.6,N
1692024615.6,286046999.3,N
1692024635.5,286047000.8,N
1692024655.3,286046998.1,N
1692024675.1,286046998.8,N
1692024695.9,286046999.6,N
1692024715.7,286046997.1,N
1692024735.5,286046995.4,N
1692024755.4,286046995.9,N
1692024775.2,286046992.4,N
1692024795.1,286046990.5,N
1692024796.0,286046990.5,N
1692024815.8,286046992.6,N
1692024835.6,286046993.9,N
1692024855.5,286046996.0,N
1692024875.3,286046995.2,N
1692024895.1,286046993.9,N
1692024915.9,286046997.1,N
1692024935.7,286046995.5,N
1692024955.6,286046997.1,N
1692024975.4,286046995.0,N
1692024995.2,286046997.6,N
1692025015.1,286046994.2,N
1692025016.0,286046994.2,N
1692025035.8,286046992.3,N
1692025055.6,286046994.5,N
1692025075.5,286046993.4,N
1692025095.3,286046996.8,N
1692025115.2,286047000.9,N
1692025135.9,286047000.1,N
1692025155.7,286047000.6,N
1692025175.6,286046999.9,N
1692025195.4,286047002.7,N
